Flag for Nepal Weather past 2 weeks in Kathmandu, Nepal

Now
N/A

Fog.


Feels Like: N/A
Forecast: 53 / 76 °F
Wind: 3 mph from East

Location: Kathmandu Airport

Current Time: Apr 28, 2015 at 6:27:12 AM

Latest Report: Apr 28, 2015 at 5:35 AM


Visibility: 2 mi

Pressure: N/A

Humidity: N/A

Dew point: N/A

Location of KathmanduLocation

Historic Weather in Kathmandu — Graph

°F

Kathmandu temperature yesterday

Maximum temperature yesterday: 75 °F (at 12:35 PM)
Minimum temperature yesterday: 55 °F (at 2:35 AM)
Average temperature yesterday: 66 °F

Past Weeks' High & Low Weather Summary

 TemperatureHumidityPressure
High82 °F (Apr 21, 1:35 PM)100% (Apr 14, 1:35 AM)30.27 "Hg (Apr 14, 1:35 AM)
Low54 °F (Apr 23, 4:35 AM)21% (Apr 23, 1:35 PM)29.77 "Hg (Apr 18, 3:35 PM)
Average65 °F75%30.03 "Hg
* Reported Apr 13 4:35 AM — Apr 28 4:35 AM, Kathmandu, Weather by CustomWeather, © 2015

Note: Actual official high and low records may vary slightly from our data, if they occured in-between our weather recording intervals... More about our weather records

Advertising

Kathmandu weather history for previous 24 hours

 ConditionsComfort  
Time TempWeatherWind HumidityBarometerVisibility
4:35 AM
Tue, Apr 28
59 °FPassing clouds.3 mph88%30.01 "Hg4 mi
2:35 AM61 °FPassing clouds.2 mph88%30.01 "Hg4 mi
1:35 AM59 °FPassing clouds.3 mph88%30.01 "Hg4 mi
12:35 AM61 °FPassing clouds.5 mph88%30.04 "Hg4 mi
11:35 PM
Mon, Apr 27
61 °FPassing clouds.2 mph83%30.07 "Hg4 mi
10:35 PM63 °FPassing clouds.2 mph83%30.07 "Hg5 mi
9:35 PM63 °FPassing clouds.3 mph83%30.07 "HgN/A
8:35 PM66 °FPassing clouds.3 mph78%30.04 "Hg5 mi
7:35 PM68 °FPassing clouds.2 mph69%30.04 "Hg5 mi
6:35 PM70 °FScattered clouds.3 mph60%30.01 "HgN/A
5:35 PM72 °FPassing clouds.3 mph61%30.01 "HgN/A
4:35 PM72 °FBroken clouds.6 mph61%30.01 "HgN/A
3:35 PM70 °FLight rain. Broken clouds.7 mph60%30.04 "Hg5 mi
2:35 PM72 °FLight rain. Broken clouds.7 mph53%30.04 "HgN/A
1:35 PM75 °FScattered clouds.7 mph100%30.07 "HgN/A
12:35 PM75 °FScattered clouds.3 mph47%30.09 "HgN/A
11:35 AM72 °FScattered clouds.6 mph50%30.12 "HgN/A
10:35 AM70 °FPassing clouds.5 mph64%30.15 "HgN/A
9:35 AM66 °FScattered clouds.5 mph68%30.15 "HgN/A
8:35 AM63 °FFog.N/A77%30.15 "HgN/A
7:35 AM57 °FBroken clouds.2 mph94%30.15 "Hg4 mi
6:35 AM55 °FBroken clouds.2 mph94%30.12 "Hg4 mi
Weather by CustomWeather, © 2015

See weather overviewHow to use our weather pages